• MPC Preparation (Info)

  • MPEC 2024-F26 : 2024 FN

    The following Minor Planet Electronic Circular may be linked-to from your own Web pages, but must not otherwise be redistributed electronically.

    A form allowing access to any MPEC is at the bottom of this page.


    Read MPEC 2024-F25 Read MPEC 2024-F27


    M.P.E.C. 2024-F26                                Issued 2024 March 19, 08:46 UT
    
         The Minor Planet Electronic Circulars contain information on unusual
             minor planets, routine data on comets and natural satellites,
             and occasional editorial announcements.  They are published
        on behalf of Division F of the International Astronomical Union by the
              Minor Planet Center, Smithsonian Astrophysical Observatory,
                              Cambridge, MA 02138, U.S.A.
    			  
                 Prepared using the Tamkin Foundation Computer Network
    
                                  MPC@CFA.HARVARD.EDU
                URL https://www.minorplanetcenter.net/    ISSN 1523-6714
    
                                     2024 FN                                 
    
    
    Observations:
         K24F00N* C2024 03 17.42568611 40 08.115+03 32 41.24         21.28wXEF026F51
         K24F00N  C2024 03 17.43309311 40 07.429+03 32 44.34         21.74wXEF026F51
         K24F00N  C2024 03 17.43786511 40 06.979+03 32 46.40         21.68wXEF026F51
         K24F00N  C2024 03 17.44523411 40 06.288+03 32 49.75         21.64wXEF026F51
         K24F00N  C2024 03 17.45002211 40 05.836+03 32 51.82         22.02wXEF026F51
         K24F00N  C2024 03 17.45735511 40 05.156+03 32 55.08         21.66wXEF026F51
         K24F00N  C2024 03 17.46212811 40 04.708+03 32 57.25         21.55wXEF026F51
         K24F00N  C2024 03 17.52845411 39 58.510+03 33 26.05         21.69GVEF026F52
         K24F00N  C2024 03 17.52927711 39 58.433+03 33 26.41         21.64GVEF026F52
         K24F00N  C2024 03 17.53009911 39 58.361+03 33 26.76         21.92GVEF026F52
         K24F00N  C2024 03 17.53092111 39 58.286+03 33 27.07         21.35GVEF026F52
         K24F00N |C2024 03 18.17244011 39 00.980+03 38 18.60         21.4 GVEF026807
         K24F00N |C2024 03 18.17809011 39 00.490+03 38 21.30         21.2 GVEF026807
         K24F00N |C2024 03 18.18358011 38 59.970+03 38 23.50         21.0 GVEF026807
         K24F00N KC2024 03 19.31383 11 37 16.71 +03 46 33.6          21.4 RVEF026291
         K24F00N KC2024 03 19.32067 11 37 16.04 +03 46 36.8          22.0 RVEF026291
         K24F00N KC2024 03 19.32751 11 37 15.38 +03 46 40.0          21.5 RVEF026291
    
    Observer details:
    291 LPL/Spacewatch II.  Observer M. T. Read.  1.8-m f/2.7 reflector + CCD.
    807 Cerro Tololo Observatory, La Serena.  Observers T. Linder, R. Holmes.
        0.61-m f/6.8 Ritchey-Chretien + CCD.
    F51 Pan-STARRS 1, Haleakala.  Observers J. Herman, T. Lowe, P. Minguez, A.
        Schultz, I. Smith.  Measurers K. Chambers, T. de Boer, J. Fairlamb, H.
        Gao, M. Huber, C.-C. Lin, E. Magnier, Y. Ramanjooloo, R. Wainscoat, R.
        Weryk.  1.8-m Ritchey-Chretien + CCD.
    F52 Pan-STARRS 2, Haleakala.  Observers J. Herman, T. Lowe, P. Minguez, A.
        Schultz, I. Smith.  Measurers K. Chambers, T. de Boer, J. Fairlamb, H.
        Gao, M. Huber, C.-C. Lin, E. Magnier, Y. Ramanjooloo, R. Wainscoat, R.
        Weryk.  1.8-m Ritchey-Chretien + CCD.
    
    Orbital elements:
    2024 FN                                             PHA, Earth MOID = 0.0487 AU
    Epoch 2024 Mar. 31.0 TT = JDT 2460400.5                 MPC                     
    M 329.92979              (2000.0)            P               Q                  
    n   0.25905741     Peri.  270.38371     +0.13002935     +0.99149041             
    a   2.4370926      Node     7.09674     -0.88836605     +0.11930228             
    e   0.5904794      Incl.    2.90225     -0.44033865     +0.05209344             
    P   3.80           H   20.70          G   0.15           U   9                  
    Residuals in seconds of arc
    240317 F51  0.1-  0.1+    240317 F51  0.0   0.2+    240318 807  0.2+  0.2+
    240317 F51  0.0   0.0     240317 F52  0.0   0.0     240318 807  0.2+  0.0
    240317 F51  0.0   0.1-    240317 F52  0.0   0.0     240319 291  0.2+  0.2-
    240317 F51  0.0   0.1+    240317 F52  0.0   0.0     240319 291  0.1-  0.0
    240317 F51  0.1-  0.0     240317 F52  0.0   0.1-    240319 291  0.1-  0.1+
    240317 F51  0.0   0.1+    240318 807  0.5-  0.0
    
    Ephemeris:
    2024 FN                  a,e,i = 2.44, 0.59, 3                   q = 0.9980
    Date    TT    R. A. (2000) Decl.     Delta      r    Elong.  Phase     V
    2024 02 18    12 08 10.0 +01 10 05   1.1235  2.0252   147.0    15.4    23.3
    ...
    2024 03 04    11 57 16.6 +02 06 22   0.9360  1.9110   164.9     7.7    22.5
    ...
    2024 03 12    11 47 48.2 +02 54 39   0.8566  1.8488   175.3     2.5    22.0
    ...
    2024 03 18    11 39 16.6 +03 36 56   0.8074  1.8016   176.1     2.2    21.8
    2024 03 19    11 37 45.6 +03 44 19   0.8000  1.7937   174.7     2.9    21.8
    2024 03 20    11 36 13.4 +03 51 45   0.7929  1.7858   173.4     3.7    21.8
    ...
    2024 03 26    11 26 38.0 +04 37 00   0.7553  1.7381   165.0     8.5    21.9
    ...
    2024 04 03    11 13 30.3 +05 35 08   0.7179  1.6741   153.7    15.3    21.9
    ...
    2024 04 18    10 51 55.7 +06 54 53   0.6804  1.5532   133.6    27.9    22.1
    
    A. U. Tomatic                (C) Copyright 2024 MPC           M.P.E.C. 2024-F26
    


    Read MPEC 2024-F25 Read MPEC 2024-F27


    MPEC number:

    Enter an MPEC number in one of the following forms:

    • 1997-B01 (the full form)
    • J97B01 (the packed version of the full form)
    • B01 (the abbreviated form)